This is the latest recevied weather packets stored in our database for station/object PA5MB-15. If no packets are shown the sender has not sent any weather packets the latest 10 day(s).
| Time | Temp. | Humidity | Pressure | Rain* | Wind** | Luminosity | Snow |
|---|---|---|---|---|---|---|---|
| 1777894830 | 19.44° C | 75% | 1014.5 hPa | 0 mm | - | 35 W/m² | - |
| 1777894530 | 18.89° C | 76% | 1014.5 hPa | 0 mm | - | 38 W/m² | - |
| 1777894230 | 18.89° C | 75% | 1014.5 hPa | 0 mm | - | 37 W/m² | - |
| 1777893932 | 18.33° C | 77% | 1014.6 hPa | 0 mm | - | 29 W/m² | - |
| 1777893631 | 18.33° C | 78% | 1014.6 hPa | 0 mm | - | 25 W/m² | - |
| 1777893324 | 18.33° C | 77% | 1014.6 hPa | 0 mm | - | 25 W/m² | - |
| 1777893044 | 18.33° C | 79% | 1014.6 hPa | 0 mm | - | 20 W/m² | - |
| 1777892730 | 18.33° C | 82% | 1014.6 hPa | 0 mm | - | 20 W/m² | - |
| 1777892425 | 18.89° C | 82% | 1014.6 hPa | 0 mm | - | 22 W/m² | - |
| 1777892131 | 18.89° C | 79% | 1014.6 hPa | 0 mm | - | 29 W/m² | - |
| 1777891868 | 18.33° C | 82% | 1014.6 hPa | 0 mm | - | 47 W/m² | - |
| 1777891557 | 18.89° C | 82% | 1014.6 hPa | 0 mm | - | 41 W/m² | - |
| 1777891232 | 18.33° C | 82% | 1014.6 hPa | 0 mm | - | 49 W/m² | - |
| 1777890926 | 18.33° C | 84% | 1014.7 hPa | 0 mm | - | 29 W/m² | - |
| 1777890633 | 18.33° C | 84% | 1014.7 hPa | 0 mm | - | 35 W/m² | - |
| 1777890330 | 17.78° C | 85% | 1014.7 hPa | 0 mm | - | 26 W/m² | - |
| 1777890045 | 17.22° C | 85% | 1014.7 hPa | 0 mm | - | 20 W/m² | - |
| 1777889732 | 17.22° C | 86% | 1014.7 hPa | 0 mm | - | 19 W/m² | - |
| 1777889422 | 17.22° C | 87% | 1014.8 hPa | 0 mm | - | 19 W/m² | - |
| 1777889130 | 17.78° C | 87% | 1014.8 hPa | 0 mm | - | 18 W/m² | - |
| 1777888833 | 17.78° C | 86% | 1014.8 hPa | 0 mm | - | 18 W/m² | - |
| 1777888531 | 18.33° C | 84% | 1014.8 hPa | 0 mm | - | 17 W/m² | - |
| 1777888224 | 18.89° C | 83% | 1014.8 hPa | 0 mm | - | 20 W/m² | - |
| 1777887930 | 18.89° C | 81% | 1014.8 hPa | 0 mm | - | 44 W/m² | - |
| 1777887632 | 18.89° C | 82% | 1014.9 hPa | 0 mm | - | 55 W/m² | - |
* Rain latest hour (hover to see other rain measurements)
** Current wind speed in m/s (hover to see current wind gust speed)